When you browse on this site, cookies collect data to enhance your experience and personalize the content and advertising you see.
Visit our Privacy Policy to learn more. By continuing to use the site, you agree to this use of cookies and data.
  • En España
  • Lista de países
  • Para 7 días
  • Temperatura del agua
  • El tiempo en el mapa
  • Informadores
  • user-avatar
    Iniciar sesión

    Tiempo cada hora Rawson

    Hoy, 1 Junio, Lunes

    Tiempo Temperatura Precipitaciones Viento Presión Humedad
    00:00 +7°C° 0 mm 2 mps 764 mmHg 66%
    01:00 +6°C° 0 mm 2 mps 764 mmHg 69%
    02:00 +6°C° 0 mm 2 mps 764 mmHg 72%
    03:00 +5°C° 0 mm 3 mps 764 mmHg 73%
    04:00 +5°C° 0 mm 3 mps 763 mmHg 73%
    05:00 +5°C° 0 mm 4 mps 762 mmHg 74%
    06:00 +5°C° 0 mm 4 mps 762 mmHg 75%
    07:00 +5°C° 0 mm 4 mps 762 mmHg 76%
    08:00 +5°C° 0 mm 4 mps 762 mmHg 77%
    09:00 +7°C° 0 mm 5 mps 761 mmHg 64%
    10:00 +9°C° 0 mm 5 mps 761 mmHg 51%
    11:00 +12°C° 0 mm 5 mps 760 mmHg 39%
    12:00 +13°C° 0 mm 5 mps 759 mmHg 37%
    13:00 +13°C° 0 mm 5 mps 759 mmHg 36%
    14:00 +14°C° 0 mm 4 mps 758 mmHg 35%
    15:00 +13°C° 0 mm 4 mps 758 mmHg 39%
    16:00 +13°C° 0 mm 4 mps 757 mmHg 43%
    17:00 +12°C° 0 mm 4 mps 757 mmHg 48%
    18:00 +12°C° 0 mm 4 mps 757 mmHg 47%
    19:00 +10°C° 0 mm 5 mps 757 mmHg 47%
    20:00 +10°C° 0 mm 5 mps 757 mmHg 47%
    21:00 +10°C° 0 mm 5 mps 756 mmHg 45%
    22:00 +12°C° 0 mm 5 mps 756 mmHg 43%
    23:00 +12°C° 0 mm 5 mps 756 mmHg 42%

    Mañana, 2 Junio, Martes

    Tiempo Temperatura Precipitaciones Viento Presión Humedad
    00:00 +11°C° 0 mm 4 mps 756 mmHg 43%
    01:00 +11°C° 0 mm 4 mps 755 mmHg 45%
    02:00 +11°C° 0 mm 4 mps 755 mmHg 47%
    03:00 +11°C° 0 mm 4 mps 755 mmHg 47%
    04:00 +11°C° 0 mm 4 mps 754 mmHg 47%
    05:00 +11°C° 0 mm 4 mps 754 mmHg 47%
    06:00 +10°C° 0 mm 5 mps 754 mmHg 50%
    07:00 +10°C° 0 mm 7 mps 754 mmHg 53%
    08:00 +10°C° 0 mm 8 mps 754 mmHg 55%
    09:00 +11°C° 0 mm 9 mps 755 mmHg 52%
    10:00 +11°C° 0 mm 10 mps 755 mmHg 49%
    11:00 +12°C° 0 mm 10 mps 755 mmHg 46%
    12:00 +12°C° 0 mm 10 mps 755 mmHg 44%
    13:00 +12°C° 0 mm 10 mps 756 mmHg 42%
    14:00 +12°C° 0 mm 10 mps 756 mmHg 41%
    15:00 +11°C° 0.1 mm 11 mps 757 mmHg 52%
    16:00 +9°C° 0.1 mm 12 mps 758 mmHg 63%
    17:00 +8°C° 0.1 mm 13 mps 759 mmHg 75%
    18:00 +8°C° 0.3 mm 13 mps 760 mmHg 75%
    19:00 +7°C° 0.3 mm 13 mps 761 mmHg 75%
    20:00 +5°C° 0.3 mm 12 mps 763 mmHg 75%
    21:00 +6°C° 0 mm 11 mps 763 mmHg 73%
    22:00 +6°C° 0 mm 9 mps 764 mmHg 71%
    23:00 +6°C° 0 mm 7 mps 765 mmHg 69%

    Pasado mañana, 3 Junio, Miércoles

    Tiempo Temperatura Precipitaciones Viento Presión Humedad
    00:00 +6°C° 0.1 mm 7 mps 766 mmHg 68%
    01:00 +5°C° 0.1 mm 7 mps 766 mmHg 66%
    02:00 +5°C° 0.1 mm 7 mps 767 mmHg 65%
    03:00 +5°C° 0 mm 7 mps 767 mmHg 66%
    04:00 +4°C° 0 mm 6 mps 768 mmHg 67%
    05:00 +3°C° 0 mm 5 mps 768 mmHg 67%
    06:00 +3°C° 0 mm 5 mps 768 mmHg 68%
    07:00 +4°C° 0 mm 4 mps 769 mmHg 69%
    08:00 +3°C° 0 mm 4 mps 769 mmHg 70%
    09:00 +4°C° 0 mm 4 mps 770 mmHg 64%
    10:00 +6°C° 0 mm 4 mps 770 mmHg 58%
    11:00 +7°C° 0 mm 4 mps 770 mmHg 52%
    12:00 +7°C° 0 mm 4 mps 769 mmHg 47%
    13:00 +8°C° 0 mm 5 mps 768 mmHg 43%
    14:00 +9°C° 0 mm 6 mps 767 mmHg 38%
    15:00 +8°C° 0 mm 6 mps 767 mmHg 41%
    16:00 +8°C° 0 mm 6 mps 767 mmHg 44%
    17:00 +8°C° 0 mm 6 mps 766 mmHg 47%
    18:00 +6°C° 0 mm 8 mps 766 mmHg 50%
    19:00 +6°C° 0 mm 9 mps 765 mmHg 53%
    20:00 +6°C° 0 mm 11 mps 765 mmHg 56%
    21:00 +6°C° 0 mm 11 mps 764 mmHg 55%
    22:00 +6°C° 0 mm 11 mps 764 mmHg 54%
    23:00 +6°C° 0 mm 11 mps 763 mmHg 53%

    4 Junio, Jueves

    Tiempo Temperatura Precipitaciones Viento Presión Humedad
    00:00 +6°C° 0 mm 11 mps 762 mmHg 53%
    01:00 +6°C° 0 mm 11 mps 762 mmHg 52%
    02:00 +4°C° 0 mm 11 mps 761 mmHg 51%
    03:00 +5°C° 0 mm 10 mps 760 mmHg 50%
    04:00 +5°C° 0 mm 9 mps 760 mmHg 48%
    05:00 +5°C° 0 mm 8 mps 759 mmHg 46%
    06:00 +5°C° 0 mm 8 mps 759 mmHg 48%
    07:00 +5°C° 0 mm 7 mps 759 mmHg 51%
    08:00 +5°C° 0 mm 6 mps 759 mmHg 53%
    09:00 +8°C° 0 mm 6 mps 759 mmHg 48%
    10:00 +9°C° 0 mm 6 mps 759 mmHg 43%
    11:00 +11°C° 0 mm 6 mps 759 mmHg 37%
    12:00 +13°C° 0 mm 5 mps 759 mmHg 34%
    13:00 +14°C° 0 mm 5 mps 758 mmHg 31%
    14:00 +17°C° 0 mm 4 mps 758 mmHg 28%
    15:00 +14°C° 0 mm 3 mps 758 mmHg 31%
    16:00 +14°C° 0 mm 2 mps 758 mmHg 34%
    17:00 +13°C° 0 mm 2 mps 758 mmHg 37%
    18:00 +12°C° 0 mm 1 mps 758 mmHg 38%
    19:00 +12°C° 0 mm 1 mps 758 mmHg 39%
    20:00 +11°C° 0 mm 1 mps 758 mmHg 41%
    21:00 +10°C° 0 mm 2 mps 758 mmHg 41%
    22:00 +10°C° 0 mm 2 mps 758 mmHg 41%
    23:00 +10°C° 0 mm 3 mps 758 mmHg 41%

    5 Junio, Viernes

    Tiempo Temperatura Precipitaciones Viento Presión Humedad
    00:00 +10°C° 0 mm 3 mps 758 mmHg 42%
    01:00 +10°C° 0 mm 3 mps 758 mmHg 43%
    02:00 +10°C° 0 mm 4 mps 758 mmHg 44%
    03:00 +10°C° 0 mm 4 mps 757 mmHg 44%
    04:00 +8°C° 0 mm 4 mps 757 mmHg 43%
    05:00 +8°C° 0 mm 4 mps 757 mmHg 43%
    06:00 +8°C° 0 mm 4 mps 757 mmHg 42%
    07:00 +9°C° 0 mm 3 mps 756 mmHg 42%
    08:00 +9°C° 0 mm 3 mps 756 mmHg 41%
    09:00 +10°C° 0 mm 3 mps 756 mmHg 37%
    10:00 +12°C° 0 mm 3 mps 756 mmHg 34%
    11:00 +13°C° 0 mm 3 mps 756 mmHg 30%
    12:00 +14°C° 0 mm 3 mps 756 mmHg 27%
    13:00 +16°C° 0 mm 3 mps 755 mmHg 24%
    14:00 +17°C° 0 mm 4 mps 755 mmHg 22%
    15:00 +15°C° 0 mm 4 mps 755 mmHg 22%
    16:00 +14°C° 0 mm 4 mps 755 mmHg 22%
    17:00 +14°C° 0 mm 4 mps 755 mmHg 22%
    18:00 +14°C° 0 mm 5 mps 755 mmHg 22%
    19:00 +13°C° 0 mm 6 mps 755 mmHg 21%
    20:00 +12°C° 0 mm 7 mps 755 mmHg 21%
    21:00 +12°C° 0 mm 7 mps 755 mmHg 24%
    22:00 +12°C° 0 mm 7 mps 755 mmHg 27%
    23:00 +11°C° 0 mm 7 mps 754 mmHg 30%

    6 Junio, Sábado

    Tiempo Temperatura Precipitaciones Viento Presión Humedad
    00:00 +11°C° 0 mm 7 mps 754 mmHg 31%
    01:00 +11°C° 0 mm 7 mps 754 mmHg 33%
    02:00 +11°C° 0 mm 7 mps 753 mmHg 34%
    03:00 +11°C° 0 mm 7 mps 753 mmHg 33%
    04:00 +11°C° 0 mm 8 mps 753 mmHg 32%
    05:00 +11°C° 0 mm 8 mps 752 mmHg 32%
    06:00 +11°C° 0 mm 8 mps 752 mmHg 31%
    07:00 +11°C° 0 mm 9 mps 751 mmHg 31%
    08:00 +12°C° 0 mm 9 mps 751 mmHg 31%
    09:00 +13°C° 0 mm 10 mps 750 mmHg 31%
    10:00 +13°C° 0 mm 11 mps 750 mmHg 31%
    11:00 +14°C° 0 mm 11 mps 749 mmHg 31%
    12:00 +17°C° 0 mm 12 mps 748 mmHg 28%
    13:00 +18°C° 0 mm 13 mps 748 mmHg 26%
    14:00 +19°C° 0 mm 13 mps 747 mmHg 24%
    15:00 +18°C° 0 mm 13 mps 747 mmHg 28%
    16:00 +17°C° 0 mm 13 mps 747 mmHg 33%
    17:00 +15°C° 0 mm 13 mps 748 mmHg 38%
    18:00 +14°C° 0 mm 13 mps 749 mmHg 36%
    19:00 +12°C° 0 mm 13 mps 749 mmHg 33%
    20:00 +10°C° 0 mm 13 mps 750 mmHg 31%
    21:00 +9°C° 0 mm 12 mps 752 mmHg 32%
    22:00 +8°C° 0 mm 12 mps 753 mmHg 33%
    23:00 +8°C° 0 mm 12 mps 754 mmHg 34%
    Mostrar más